Lumberton, NC

4:03 PM EST on November 24, 2017 (GMT -0500)
Lumberton Municipal

Weather History for KLBT - November, 2013

Change the Weather History Date:

Sunday, November 17, 2013

  Actual Average Record
Temperature  
Mean Temperature 62 °F 54 °F  
Max Temperature 74 °F 67 °F 75 °F (2003)
Min Temperature 50 °F 41 °F 27 °F (2007)
Degree Days  
Heating Degree Days 3 11  
Month to date heating degree days 196 160  
Since 1 July heating degree days 300 292  
Cooling Degree Days 0 0  
Month to date cooling degree days 9 10  
Year to date cooling degree days 1856 1904  
Growing Degree Days 12 (Base 50)    
Moisture  
Dew Point 59 °F    
Average Humidity 84    
Maximum Humidity 100    
Minimum Humidity 68    
Precipitation  
Precipitation 0.01 in 0.10 in 0.29 in (2002)
Month to date precipitation 0.61 1.55  
Year to date precipitation 38.34 39.31  
Sea Level Pressure  
Sea Level Pressure 30.10 in    
Wind  
Wind Speed 4 mph (SE)    
Max Wind Speed 10 mph    
Max Gust Speed 15 mph    
Visibility 5 miles    
Events Fog , Rain    
T = Trace of Precipitation, MM = Missing Value Source: NWS Daily Summary

Daily Weather History Graph

Daily Weather History Graph

Search for Another Location

Airport or City:

Trip Planner

Search our weather history database for the weather conditions in past years. The results will help you decide how hot, cold, wet, or windy it might be!

Date:

Astronomy

Nov. 17, 2013 Rise Set
Actual Time 6:52 AM EST 5:10 PM EST
Civil Twilight 6:25 AM EST 5:37 PM EST
Nautical Twilight 5:54 AM EST 6:07 PM EST
Astronomical Twilight 5:24 AM EST 6:37 PM EST
Moon 5:25 PM EST (11/17) 6:45 AM EST (11/17)
Length of Visible Light 11h 11m
Length of Day
10h 18m
Full, 100% of the Moon is Illuminated
Nov 17
Full
Nov 25
Last Quarter
Dec 2
New
Dec 9
First Quarter
Dec 17
Full

Hourly Weather History & Observations

Time (EST) Temp. Dew Point Humidity Pressure Visibility Wind Dir Wind Speed Gust Speed Precip Events Conditions
12:08 AM 55.4 °F 53.6 °F 94% 30.20 in 1.8 mi Calm Calm - N/A   Clear
12:16 AM 51.8 °F 51.8 °F 100% 30.20 in 1.2 mi Calm Calm - N/A   Clear
12:25 AM 51.8 °F 51.8 °F 100% 30.20 in 0.8 mi Calm Calm - N/A   Clear
12:40 AM 51.8 °F 51.8 °F 100% 30.20 in 0.2 mi Calm Calm - N/A Fog Fog
12:54 AM 51.1 °F 50.0 °F 96% 30.19 in 0.2 mi Calm Calm - N/A Fog Fog
1:28 AM 51.8 °F 51.8 °F 100% 30.19 in 0.2 mi Calm Calm - N/A Fog Fog
1:47 AM 51.8 °F 51.8 °F 100% 30.18 in 0.2 mi Calm Calm - N/A Fog Fog
1:54 AM 52.0 °F 52.0 °F 100% 30.17 in 0.5 mi Calm Calm - N/A Fog Fog
2:01 AM 50.0 °F 50.0 °F 100% 30.17 in 0.5 mi Calm Calm - N/A Fog Fog
2:54 AM 55.0 °F 54.0 °F 96% 30.16 in 0.2 mi Calm Calm - N/A Fog Fog
3:54 AM 55.0 °F 55.0 °F 100% 30.16 in 0.2 mi North 4.6 mph - N/A Fog Fog
4:54 AM 55.0 °F 55.0 °F 100% 30.15 in 0.2 mi NNE 4.6 mph - N/A Fog Fog
5:54 AM 55.0 °F 55.0 °F 100% 30.14 in 0.2 mi East 3.5 mph - N/A Fog Fog
6:54 AM 54.0 °F 54.0 °F 100% 30.14 in 0.2 mi ESE 3.5 mph - N/A Fog Fog
7:54 AM 55.0 °F 54.0 °F 96% 30.16 in 0.2 mi NNE 3.5 mph - N/A Fog Fog
8:54 AM 55.9 °F 55.0 °F 97% 30.18 in 0.2 mi NE 4.6 mph - N/A Fog Fog
9:31 AM 57.2 °F 55.4 °F 94% 30.18 in 1.2 mi Calm Calm - N/A   Overcast
9:43 AM 57.2 °F 57.2 °F 100% 30.18 in 2.0 mi ENE 3.5 mph - N/A   Overcast
9:54 AM 57.9 °F 57.0 °F 97% 30.18 in 3.0 mi Calm Calm - N/A   Overcast
10:51 AM 60.8 °F 57.2 °F 88% 30.16 in 5.0 mi Calm Calm - N/A   Mostly Cloudy
10:54 AM 60.1 °F 57.9 °F 93% 30.16 in 5.0 mi Calm Calm - N/A   Mostly Cloudy
11:26 AM 60.8 °F 59.0 °F 94% 30.15 in 8.0 mi Calm Calm - N/A   Overcast
11:54 AM 62.1 °F 59.0 °F 90% 30.13 in 10.0 mi Calm Calm - N/A   Mostly Cloudy
12:54 PM 64.9 °F 61.0 °F 87% 30.09 in 10.0 mi SE 3.5 mph - N/A   Overcast
1:54 PM 73.0 °F 62.1 °F 68% 30.04 in 10.0 mi SE 6.9 mph - N/A   Mostly Cloudy
2:54 PM 68.0 °F 62.1 °F 81% 30.03 in 10.0 mi Variable 3.5 mph - N/A   Overcast
3:54 PM 68.0 °F 62.1 °F 81% 30.02 in 10.0 mi South 3.5 mph - N/A   Mostly Cloudy
4:41 PM 66.2 °F 62.6 °F 88% 30.03 in 10.0 mi Calm Calm - N/A   Overcast
4:54 PM 66.9 °F 63.0 °F 87% 30.02 in 10.0 mi Calm Calm - N/A   Overcast
5:54 PM 66.9 °F 64.0 °F 90% 30.02 in 10.0 mi SE 5.8 mph - N/A   Overcast
6:54 PM 68.0 °F 66.0 °F 93% 30.00 in 10.0 mi SSE 5.8 mph - 0.00 in Rain Light Rain
7:25 PM 66.2 °F 66.2 °F 100% 30.00 in 10.0 mi SSE 5.8 mph - N/A   Overcast
7:38 PM 66.2 °F 66.2 °F 100% 29.99 in 10.0 mi SSE 5.8 mph - N/A   Overcast
7:47 PM 68.0 °F 66.2 °F 94% 29.99 in 10.0 mi SSE 5.8 mph - N/A   Overcast
7:54 PM 68.0 °F 66.9 °F 96% 29.99 in 10.0 mi SSE 4.6 mph - N/A   Overcast
8:54 PM 68.0 °F 66.9 °F 96% 29.98 in 10.0 mi SSE 4.6 mph - N/A   Overcast
9:08 PM 68.0 °F 66.2 °F 94% 29.98 in 10.0 mi South 3.5 mph - N/A   Overcast
9:54 PM 68.0 °F 66.9 °F 96% 29.97 in 10.0 mi South 8.1 mph - N/A   Overcast
10:43 PM 68.0 °F 66.2 °F 94% 29.98 in 9.0 mi SSW 8.1 mph - 0.00 in   Overcast
10:54 PM 68.0 °F 66.9 °F 96% 29.97 in 8.0 mi South 8.1 mph - 0.00 in Rain Light Rain
11:54 PM 68.0 °F 66.9 °F 96% 29.95 in 7.0 mi SSW 8.1 mph - 0.01 in Rain Light Rain